Location: Widewater Village at Stafford
(38.4893°N, 77.3783°W)
Time: 13:05:07
(UTC+00:00)

Tiangong - Pass Details

Date: 07 December 2022
Orbit: 383 x 386 km, 41.5° (Epoch: 30 January)

Event Time Altitude Azimuth Distance (km) Brightness Sun altitude
Rises 22:53:17 0° 285° (WNW) 2,255 2.8 -12.4°
Reaches altitude 10° 22:55:23 10° 290° (WNW) 1,402 1.5 -12.8°
Maximum altitude 22:58:30 54° 9° (N) 474 -1.9 -13.4°
Enters shadow 22:59:53 28° 75° (ENE) 759 -1.3 -13.7°
